Theta_e
313 313 313 313 313 312 312 312 312 312 312 313 314 315 317 318 318 310 303 313 320 327 323 315 320 319 317 315 317 319 308 303 304 305 307 318 317 321 325 323 325 326 326 331 331
314 314 313 312 312 313 312 312 312 312 313 313 314 315 316 317 311 304 316 323 325 323 312 312 311 315 311 313 314 311 306 305 310 310 309 316 318 319 320 321 320 321 329 329 328
312 314 314 313 312 313 312 312 312 312 312 313 314 315 316 315 304 302 318 319 322 320 314 314 313 311 308 312 311 310 306 310 311 312 315 316 317 322 319 318 321 319 323 326 327
313 314 314 314 313 312 312 312 312 311 311 313 313 314 316 309 290 310 316 318 319 317 312 312 310 304 303 305 311 305 311 312 314 315 314 314 318 316 319 319 324 325 325 326 325
316 314 314 314 313 312 312 311 312 312 311 312 313 314 311 298 299 311 317 316 315 314 309 308 307 303 301 306 309 307 309 312 313 312 314 316 314 316 314 321 325 325 325 324 325
316 316 314 314 314 313 312 311 312 312 311 311 313 314 304 293 307 310 309 310 312 313 310 311 308 307 303 301 301 310 309 310 311 311 312 312 313 314 311 318 320 322 322 320 317
316 316 316 314 313 313 312 311 311 312 311 311 313 309 301 297 307 309 309 309 311 311 309 313 313 308 304 300 306 307 305 308 309 312 311 315 306 310 311 314 314 314 312 310 309
316 316 316 314 313 313 312 311 311 311 311 311 313 307 296 305 309 308 309 307 311 312 312 314 314 308 304 306 305 301 303 299 306 310 309 311 303 306 309 310 309 310 308 307 306
315 315 315 314 313 312 311 311 311 311 310 312 307 303 293 309 303 307 309 304 308 310 313 315 312 306 304 298 292 298 294 299 301 307 307 306 304 305 307 308 305 306 306 305 302
315 315 314 313 312 311 310 310 310 309 309 308 306 298 299 295 302 303 310 309 304 305 305 305 303 298 298 293 285 287 291 299 299 301 303 303 303 305 305 307 305 304 304 303 302
315 315 313 313 310 309 307 306 299 297 299 293 294 294 296 301 304 302 306 305 303 301 295 301 293 289 294 295 295 294 293 289 301 299 300 302 300 302 303 306 304 304 303 302 301
315 314 313 312 309 307 308 299 299 299 291 296 296 297 300 302 295 297 306 298 296 291 295 294 289 294 297 297 294 293 287 286 291 297 296 302 297 302 301 303 304 306 306 304 300
314 314 312 310 308 307 303 301 306 304 292 291 294 296 297 300 294 294 300 298 294 290 290 289 292 297 294 293 292 292 286 286 286 291 295 298 293 294 297 301 302 304 304 303 302
314 313 311 309 304 305 301 305 307 303 286 284 289 295 298 298 293 299 300 297 294 289 290 290 294 293 293 290 293 289 295 292 288 286 285 295 288 292 294 294 295 300 301 300 300
313 312 309 304 304 300 302 306 305 299 273 285 289 299 296 292 295 296 302 298 290 291 291 288 290 291 290 291 294 292 295 292 291 286 285 286 287 296 296 292 294 297 299 298 295
311 308 307 305 306 303 306 303 300 284 273 282 289 288 288 290 291 295 295 299 297 291 292 291 296 294 292 295 295 297 294 292 291 287 282 287 285 290 291 295 298 300 299 296 294
307 306 306 305 300 305 303 299 283 276 283 281 282 286 286 285 287 289 289 288 285 282 283 288 290 294 295 291 293 292 290 283 281 280 280 290 284 288 297 300 300 298 297 296 295
305 305 302 302 305 304 300 289 276 277 278 284 284 285 283 286 286 286 285 283 289 287 283 282 280 290 294 291 287 289 290 283 277 280 283 287 284 290 297 298 303 300 298 296 295
305 303 302 301 301 302 295 281 280 279 283 282 284 280 282 284 285 284 285 284 288 289 281 281 282 292 294 294 292 288 286 292 284 284 282 286 290 294 293 296 298 295 294 292 292
302 300 298 300 300 299 287 282 282 283 285 284 278 281 278 282 281 282 283 288 287 290 292 285 280 289 292 294 294 291 293 284 285 277 276 282 286 287 289 294 296 295 294 294 293
300 294 298 299 299 293 283 283 282 286 286 282 281 279 281 280 281 280 282 287 290 290 292 288 285 285 290 288 287 288 287 289 289 286 280 278 284 291 294 296 295 296 297 296 293
297 286 298 298 287 284 284 281 285 285 288 285 285 283 281 282 280 280 281 285 288 286 286 290 286 281 284 291 292 291 288 289 283 282 285 283 285 288 289 294 297 296 296 295 293
295 293 297 296 284 284 280 281 284 284 284 283 283 285 285 282 278 282 284 289 288 286 287 289 284 279 281 286 291 288 290 291 290 289 284 283 285 288 288 290 296 295 295 294 293
294 286 291 292 288 286 281 281 281 286 285 286 285 286 283 280 284 281 283 287 289 286 290 291 286 282 278 282 286 285 288 290 289 284 285 286 287 288 288 289 292 293 293 292 291
293 287 287 284 285 285 284 282 280 280 285 286 284 284 281 278 280 281 283 285 288 288 288 286 281 284 284 285 286 286 287 288 287 288 285 287 288 290 290 290 292 293 291 290 289
288 288 287 283 285 284 283 282 281 282 283 282 282 284 284 279 281 279 281 283 282 285 285 286 281 282 281 284 285 284 286 288 289 289 289 289 288 290 290 292 291 290 290 289 289
292 291 291 284 284 283 284 284 283 285 286 286 285 284 283 284 287 286 286 285 284 282 280 281 281 281 279 282 283 280 284 285 289 291 291 286 291 288 287 289 290 290 290 289 289
Wind_Speed
7 6 7 7 8 10 10 11 12 12 12 13 15 15 16 17 20 13 12 5 6 8 7 13 13 13 10 11 13 14 12 16 21 18 15 12 13 6 5 11 5 5 7 20 20
6 6 6 7 7 8 9 10 11 13 13 13 15 16 17 18 17 14 8 11 10 4 5 5 6 11 8 14 10 13 14 20 16 17 15 17 17 13 11 14 8 9 16 19 19
7 6 7 6 7 7 8 9 10 12 13 13 15 17 18 15 13 1 14 12 9 5 6 4 6 8 12 16 15 15 18 18 17 13 12 18 15 13 14 15 13 16 15 18 20
8 8 7 7 7 7 8 9 10 12 12 13 14 17 20 8 5 6 15 14 10 7 6 3 3 2 6 18 17 18 19 17 10 9 7 15 13 8 6 4 3 20 19 20 17
9 9 8 8 7 8 8 9 10 11 12 13 14 15 11 6 11 9 13 14 8 7 11 8 5 4 9 14 19 19 18 16 7 7 13 13 14 9 9 6 16 17 17 18 13
11 9 9 8 9 8 8 10 10 11 12 12 12 15 8 13 5 8 13 14 6 6 7 9 6 7 2 6 16 15 21 13 12 12 11 13 10 12 5 8 13 14 16 14 13
8 10 9 9 9 8 9 10 11 12 13 13 11 9 10 13 9 11 11 12 10 7 9 10 3 6 6 4 11 18 18 14 14 14 10 15 8 7 13 12 13 15 13 12 11
8 8 9 9 7 8 9 10 11 12 13 12 10 8 7 3 9 9 10 11 8 7 7 9 5 6 2 2 6 11 16 19 17 17 9 19 17 10 11 14 14 13 12 11 10
9 8 8 7 6 7 10 12 14 13 12 9 8 4 6 5 7 11 10 8 10 7 4 9 7 5 3 3 5 6 12 26 18 17 9 14 11 15 12 13 13 10 10 10 9
8 7 7 6 4 6 11 14 11 9 6 5 4 7 2 10 10 15 9 7 7 7 6 6 7 5 7 5 5 3 6 23 21 15 13 18 6 16 13 14 15 11 10 9 9
7 8 8 6 2 5 9 5 4 5 2 5 9 9 11 15 11 5 6 7 9 12 15 13 7 17 17 20 11 6 8 8 5 3 15 18 12 16 13 13 13 13 12 10 9
8 9 9 6 3 3 5 3 4 2 7 3 6 7 7 6 7 5 4 7 9 14 17 13 16 14 10 13 17 14 3 1 7 12 8 19 14 14 12 11 11 16 15 13 10
11 11 10 7 3 0 6 5 3 3 6 1 3 5 5 7 7 7 7 5 11 14 14 20 3 11 15 13 20 17 6 4 1 10 16 10 7 13 8 8 7 11 7 11 12
13 12 10 7 4 1 3 3 4 4 4 1 1 1 4 7 5 6 5 6 5 11 14 14 18 3 12 17 16 18 16 10 4 2 3 9 10 16 15 15 10 10 13 14 13
13 12 8 3 4 1 3 4 3 4 5 5 2 5 9 5 11 5 1 5 11 10 9 9 11 11 16 16 16 10 16 14 10 2 4 3 7 13 18 15 20 18 16 15 12
13 12 9 4 3 2 3 3 4 3 5 3 4 6 9 4 5 6 4 4 7 9 11 16 8 8 14 9 10 6 10 12 13 4 6 8 3 8 18 25 20 19 19 15 16
13 10 3 2 3 2 2 3 2 4 2 5 5 7 13 7 8 4 7 8 8 4 9 12 15 3 5 7 5 4 8 5 6 6 6 4 7 5 12 7 18 20 18 16 14
13 8 7 5 2 1 2 2 4 3 3 3 5 13 5 7 4 6 6 9 12 13 11 9 7 17 12 14 6 17 12 3 3 4 2 6 4 1 3 6 14 18 15 16 16
13 4 3 4 3 2 1 3 3 2 3 7 10 4 4 2 5 8 9 13 10 13 10 7 8 8 7 9 11 11 11 4 2 2 1 1 3 5 4 7 13 18 17 16 15
4 3 3 5 3 3 2 2 1 2 5 2 4 2 6 5 6 4 6 2 4 12 15 8 7 9 10 4 10 7 7 6 3 5 4 6 5 4 10 14 18 21 20 17 14
3 3 3 3 3 1 2 1 2 3 4 3 2 5 7 8 6 5 7 10 7 12 12 11 7 2 6 11 12 9 10 7 4 3 5 4 4 4 9 15 17 17 20 21 20
3 1 3 3 2 1 1 3 1 3 3 3 2 6 7 9 5 6 7 7 5 7 6 18 2 8 9 4 2 5 9 14 7 5 1 3 2 2 3 2 14 14 15 17 15
3 2 1 4 2 3 0 2 3 5 5 3 4 5 5 5 6 8 6 5 9 5 3 12 5 4 3 1 5 7 11 10 10 3 5 2 2 1 0 4 6 13 13 14 17
3 2 1 1 1 2 4 3 3 6 6 4 7 6 5 6 6 6 8 6 10 5 12 6 3 6 3 6 4 10 14 11 13 5 4 6 1 4 3 7 10 12 14 14 15
1 1 1 3 4 3 4 4 3 4 6 3 4 7 4 6 10 4 4 11 3 10 6 4 4 5 5 5 5 6 9 15 13 14 8 1 6 2 6 8 9 11 13 14 16
5 4 2 2 3 4 5 5 6 3 5 4 7 7 7 5 5 9 8 5 4 10 8 5 2 2 4 2 2 3 7 12 15 14 12 4 4 3 4 6 10 12 13 15 16
2 2 2 4 4 4 4 4 6 4 5 4 4 7 9 7 7 9 8 9 8 8 6 7 5 3 1 1 3 6 10 16 17 15 15 12 3 5 2 5 9 11 13 14 15
Wind_Direction
315 330 334 340 352 353 356 358 356 354 350 342 338 334 332 330 315 287 263 336 326 334 341 317 289 262 253 257 254 259 239 227 219 219 208 154 185 201 78 130 98 42 34 120 146
319 294 308 326 330 340 343 350 350 349 347 344 337 332 331 331 307 281 6 356 327 58 324 337 310 321 253 241 231 235 228 232 216 216 221 173 194 163 173 149 123 102 96 121 141
290 292 287 303 315 322 330 337 341 342 343 341 337 332 326 317 293 41 10 343 319 268 136 327 325 298 259 246 229 237 247 234 232 224 225 176 208 171 190 189 160 158 139 147 156
280 276 285 285 302 311 320 326 333 338 338 339 335 331 321 296 287 34 351 333 314 223 170 167 143 155 268 244 229 244 235 245 219 196 237 176 148 165 210 70 97 143 150 152 154
270 266 268 278 288 301 310 318 326 328 331 335 333 332 316 267 270 358 333 336 302 213 201 188 186 166 215 253 241 223 243 223 222 184 214 168 177 138 108 71 119 140 149 148 146
266 249 251 264 276 292 308 311 314 318 323 325 329 322 302 286 6 328 327 317 314 247 225 190 192 147 285 265 296 224 235 234 197 190 173 175 140 145 140 119 124 133 128 127 126
267 250 240 252 267 287 299 303 308 310 314 318 324 307 283 264 331 324 309 304 300 295 243 211 188 175 142 314 333 291 225 218 214 187 166 149 170 170 136 150 147 139 127 121 117
252 249 236 240 257 278 292 296 297 298 303 303 312 296 276 353 318 307 325 302 271 270 256 205 202 102 143 325 302 256 229 202 207 190 175 185 185 149 156 157 147 147 141 133 119
246 236 229 227 245 275 291 295 294 294 291 289 266 304 284 308 339 329 312 297 308 266 204 169 191 208 131 174 299 245 217 205 184 197 165 198 179 155 168 162 146 153 153 145 132
233 215 211 207 241 291 304 291 293 279 244 249 241 265 210 329 322 308 277 275 269 258 193 185 200 231 190 166 206 271 258 214 190 188 200 197 156 158 172 169 157 155 162 160 150
205 189 180 170 198 332 315 298 258 191 355 323 317 288 300 328 292 246 296 284 239 246 226 203 206 213 220 210 201 215 265 343 201 70 200 197 162 170 168 187 163 158 170 170 157
174 161 154 151 120 338 304 23 43 342 304 239 282 279 291 321 295 276 294 254 211 237 228 226 232 223 229 220 203 237 240 316 303 323 289 193 171 167 174 195 170 179 178 172 158
147 144 141 140 149 224 58 58 340 296 268 239 293 295 316 311 302 286 321 291 258 237 240 235 191 208 203 230 213 212 199 134 68 339 298 191 174 177 188 190 191 183 176 169 180
138 136 137 151 217 89 65 9 322 309 294 21 248 88 289 309 257 276 282 286 251 250 230 258 238 225 202 224 234 226 198 193 271 257 242 260 215 197 170 186 189 197 180 185 167
134 129 126 282 99 72 41 320 303 243 292 25 344 333 302 275 322 152 280 259 267 267 237 243 231 226 216 215 238 229 161 172 178 220 318 223 280 185 169 196 190 188 192 182 146
126 121 136 126 81 59 325 285 250 245 254 345 310 328 338 288 276 303 276 221 288 288 251 267 288 240 238 218 234 295 175 182 164 153 241 196 237 175 180 204 185 179 189 175 146
115 88 66 6 72 359 298 250 279 246 34 354 332 323 328 289 303 283 297 269 248 237 248 247 232 196 208 176 224 235 192 167 192 174 226 183 196 270 222 192 188 179 179 167 158
116 102 64 63 61 243 243 2 253 62 328 325 296 312 282 343 283 309 290 281 252 253 278 238 220 206 192 213 200 215 221 174 207 179 123 117 242 220 306 35 186 166 165 165 165
132 99 100 31 359 253 254 246 333 19 326 330 307 336 295 304 312 322 276 257 266 218 227 238 245 261 169 195 197 184 223 189 99 42 23 194 222 220 214 148 151 152 159 164 161
122 134 76 336 319 234 83 292 298 300 314 345 332 336 306 332 319 314 280 264 256 243 245 261 281 186 199 201 231 222 187 214 247 186 234 207 219 230 197 187 171 171 183 172 159
140 136 67 323 255 65 262 40 289 246 286 281 351 291 284 309 313 292 283 299 327 305 231 239 244 223 198 214 202 202 199 223 184 258 237 228 228 22 190 190 188 177 180 174 170
153 134 40 284 75 36 224 162 277 251 230 271 263 258 269 307 283 270 273 311 336 270 243 219 308 253 242 61 329 276 218 221 201 184 222 316 146 35 12 299 181 177 172 167 164
129 114 103 270 198 190 153 248 268 222 233 205 258 238 292 284 289 254 283 311 313 281 295 185 202 221 219 220 242 219 218 228 233 344 196 200 131 33 82 153 169 166 168 163 163
143 154 88 23 252 195 182 196 236 225 252 250 279 283 298 287 238 283 300 306 321 330 9 342 245 240 291 29 329 205 216 224 222 232 192 233 73 178 170 163 164 163 164 159 166
22 177 114 182 211 203 203 150 198 223 231 229 271 242 283 291 299 271 306 306 252 7 12 9 262 242 276 287 305 293 277 217 224 229 226 205 232 330 152 186 172 161 159 165 168
137 154 170 129 136 179 191 207 209 211 196 219 239 298 276 258 304 308 337 354 346 326 344 344 11 294 256 209 183 321 303 281 233 214 242 259 266 13 14 120 160 170 172 178 182
139 111 255 151 183 212 218 204 212 202 187 268 274 298 283 284 305 291 285 281 279 315 329 332 329 316 133 343 285 256 236 230 242 225 217 212 195 159 155 191 182 180 184 187 187